Wind_Speed
20 19 19 18 17 17 15 14 13 12 11 11 11 11 11 11 10 10 9 8 7 6 7 8 8 8 9 9 14 10 7 8 5 5 11 10 9 10 12 15 18 25 34
20 20 19 18 16 15 13 13 13 13 12 12 11 10 10 9 9 8 8 7 7 6 8 7 5 6 9 10 14 11 11 9 17 14 14 12 15 17 21 21 26 30 37
22 20 18 16 15 13 13 13 14 13 12 11 10 10 9 7 6 6 5 5 6 8 10 10 8 8 9 14 10 11 15 15 19 20 12 15 18 24 27 28 30 32 35
21 19 17 15 14 13 13 13 13 12 11 11 9 8 7 5 4 3 3 3 6 8 10 10 10 10 11 16 13 16 17 19 21 21 17 16 19 23 31 33 28 36 37
20 18 16 14 12 12 12 12 12 11 10 9 8 7 4 4 3 3 2 4 7 10 8 9 8 9 15 17 18 19 21 21 23 20 15 16 20 21 24 26 30 30 29
19 17 15 14 12 11 12 13 12 10 9 9 9 6 4 3 3 2 3 4 7 9 8 7 5 7 11 20 21 24 24 28 25 21 15 20 17 25 29 30 32 27 8
16 14 14 13 12 12 13 13 12 11 10 10 7 5 4 2 2 3 4 4 7 9 9 9 9 10 14 20 21 21 25 29 31 28 23 22 23 30 29 29 30 23 19
14 14 14 13 13 13 13 13 11 10 10 9 7 4 4 3 3 5 7 7 7 7 8 11 13 14 15 21 26 23 21 23 24 22 22 25 28 29 31 31 26 32 31
13 13 13 14 14 14 13 12 11 12 11 8 7 5 4 5 7 7 8 7 7 6 6 11 16 16 18 24 25 23 23 21 22 19 22 27 31 32 38 37 31 28 15
13 12 13 13 13 13 13 11 11 12 10 9 7 6 6 7 8 7 8 8 8 7 7 9 16 16 22 25 28 25 24 28 28 25 26 29 33 32 34 31 38 25 19
12 12 13 12 12 12 12 10 13 12 11 9 8 6 7 7 8 8 9 5 6 7 9 10 13 17 23 24 27 26 28 31 30 30 31 32 31 32 31 31 28 28 14
13 14 14 13 12 12 12 10 12 12 11 10 9 6 7 7 8 8 8 7 7 8 11 14 17 17 20 22 28 28 30 31 30 30 29 28 29 28 30 28 21 14 7
14 14 15 13 12 12 12 12 11 11 11 9 9 7 5 6 8 7 10 8 8 10 16 19 18 17 18 21 24 30 32 30 28 26 24 22 26 25 23 16 16 12 7
16 16 15 14 13 11 10 10 9 10 9 9 9 7 6 6 9 11 10 10 10 14 22 22 21 18 18 25 33 30 26 25 26 24 21 21 21 20 18 15 13 16 9
16 16 15 12 12 12 9 8 8 8 10 11 8 8 9 8 9 9 10 12 15 22 24 22 19 19 24 20 16 16 18 21 20 22 21 22 20 20 16 16 15 16 14
17 16 15 14 13 11 11 9 9 8 9 7 7 7 7 7 12 10 10 13 17 25 21 17 18 16 16 14 14 14 15 17 19 21 22 21 21 19 18 16 14 15 16
18 16 14 13 13 13 12 12 11 9 8 7 8 8 6 10 14 12 14 16 19 21 18 18 18 16 16 14 14 16 17 18 18 19 21 20 19 19 19 17 15 15 15
18 20 16 15 13 12 12 12 11 12 11 9 9 10 9 11 15 15 17 18 16 15 14 16 16 16 16 16 16 16 17 17 17 16 18 18 18 19 18 16 17 16 15
17 16 14 14 14 12 11 11 10 10 9 10 12 11 11 14 15 16 19 13 12 12 12 12 15 15 15 15 16 15 16 16 17 17 17 18 18 19 17 16 15 15 15
17 17 17 15 14 14 12 12 11 10 9 9 12 12 17 20 19 21 18 12 12 12 13 14 14 14 15 14 15 14 14 14 15 16 16 17 17 18 18 18 18 17 18
14 14 16 13 14 16 14 13 13 11 9 9 12 15 21 15 16 17 18 15 14 13 14 13 14 15 16 17 16 16 16 16 15 17 18 19 20 21 20 19 19 20 20
12 13 16 14 13 14 15 14 12 12 11 10 10 12 19 11 13 14 16 16 15 13 14 15 14 15 15 17 19 20 21 20 19 20 21 21 22 23 23 23 23 23 23
11 11 12 12 12 11 11 12 12 12 12 11 11 11 20 15 11 12 13 13 14 14 14 14 14 14 15 16 17 19 20 22 22 21 24 24 24 24 24 24 24 24 24
5 7 9 9 9 10 10 12 12 12 11 11 12 12 13 14 14 13 12 12 12 13 14 15 17 18 18 19 19 21 22 21 20 22 24 23 24 25 26 25 26 27 27
10 6 4 5 4 4 3 4 3 4 5 5 3 3 4 5 6 6 6 7 9 10 11 13 14 16 19 20 20 21 23 27 26 23 22 24 26 26 27 27 28 28 28
22 20 15 12 16 14 9 9 10 8 7 6 5 4 3 3 3 4 3 4 5 7 9 10 11 14 15 17 20 24 27 29 32 33 29 27 27 28 29 31 32 33 32
Wind_Direction
137 135 136 137 135 135 139 143 148 154 158 154 159 165 175 182 189 191 194 194 194 208 227 215 223 220 209 204 209 200 187 148 142 105 138 141 125 149 145 148 154 159 162
137 136 132 130 131 137 143 146 149 146 145 154 161 168 176 188 194 202 204 204 199 203 198 212 229 200 195 194 181 188 187 172 151 132 131 122 113 130 136 144 150 157 160
135 134 132 134 139 142 144 144 143 144 151 155 159 161 172 177 189 207 205 196 192 196 201 227 235 206 190 179 181 169 167 153 147 136 129 124 111 125 119 123 126 130 133
140 139 140 145 144 145 144 144 149 154 153 151 152 159 166 162 168 172 174 178 192 195 211 219 222 209 201 186 169 159 154 143 136 132 130 125 120 118 116 114 105 118 124
144 144 146 145 143 144 144 152 156 152 151 151 156 155 154 144 161 166 167 195 183 182 196 214 229 205 195 181 168 162 153 142 136 137 133 132 133 128 122 125 115 117 119
148 148 147 146 146 149 154 155 154 154 158 153 146 155 154 142 148 165 160 169 182 189 183 188 193 180 177 183 174 164 160 153 150 148 149 149 144 134 135 133 128 125 110
152 152 151 149 149 156 158 158 160 163 153 145 144 158 144 140 175 179 155 146 164 177 167 166 149 146 159 168 171 164 163 166 162 160 152 156 148 150 143 140 140 138 138
158 155 154 153 154 156 156 161 171 159 149 148 149 151 131 118 136 145 132 125 137 150 165 168 153 149 149 158 156 149 153 156 162 161 159 157 158 153 152 148 145 139 140
166 165 161 161 158 158 156 167 164 153 150 151 146 140 115 113 126 131 122 124 126 131 164 176 163 151 157 156 149 145 144 149 160 157 157 157 158 156 160 151 141 138 128
174 174 165 164 159 159 162 165 159 156 149 146 139 131 108 115 124 131 127 130 124 129 139 160 177 169 163 164 155 146 140 150 156 154 154 153 159 162 161 159 156 141 138
180 170 164 161 151 148 154 162 156 151 149 141 141 123 103 119 133 133 135 125 132 125 138 144 162 166 170 167 166 161 159 161 158 152 151 156 158 160 166 168 165 154 149
171 166 162 156 145 146 158 157 154 153 149 145 145 124 101 120 134 137 137 137 132 136 134 134 143 158 165 171 168 168 164 159 148 144 145 150 159 167 173 173 173 164 168
169 164 160 154 146 150 158 158 157 161 161 156 152 147 122 129 136 133 135 132 132 137 145 142 140 146 156 167 170 169 163 151 147 147 152 156 168 169 168 167 176 184 192
164 160 159 154 146 150 157 160 162 168 167 168 156 150 147 145 145 144 142 137 135 136 143 143 143 142 145 146 147 147 150 156 155 156 151 149 150 158 165 176 178 188 194
163 159 158 154 151 150 151 160 167 170 175 172 170 164 168 172 177 171 156 152 146 146 143 142 138 133 134 135 137 139 146 156 155 152 150 157 163 163 172 178 186 190 202
162 162 164 157 158 157 157 150 155 158 159 159 160 165 177 178 172 165 153 151 150 150 141 133 132 136 143 142 139 135 144 148 152 155 159 163 166 175 179 182 188 194 203
168 165 166 164 166 164 169 164 152 146 149 150 160 167 164 173 168 160 154 152 154 154 141 146 146 148 156 156 159 161 159 166 166 170 170 173 179 182 180 187 193 199 209
172 171 172 180 177 175 177 175 164 161 159 163 163 169 164 159 162 159 157 153 152 159 152 154 160 164 164 165 167 171 172 174 178 182 187 186 187 186 188 195 200 206 214
173 174 181 185 183 176 174 175 172 164 155 155 160 161 162 157 160 163 162 161 163 165 169 165 170 174 179 179 177 180 182 184 188 192 195 194 196 197 202 208 213 216 221
182 183 179 181 178 179 178 179 178 170 164 159 169 165 162 161 165 171 178 179 178 171 172 180 180 182 188 190 196 192 192 193 196 199 200 202 203 206 213 216 222 226 226
184 188 185 181 186 188 189 187 185 182 178 169 170 178 176 171 176 184 190 194 193 189 185 186 188 193 196 201 201 204 208 209 207 209 211 211 211 216 222 227 231 235 241
194 190 191 196 191 192 195 192 188 189 187 179 168 179 181 174 181 190 199 207 207 207 204 201 200 199 200 201 202 206 210 214 215 215 218 220 220 224 230 235 239 240 242
193 200 198 203 203 194 192 199 196 192 190 189 180 176 189 201 202 202 205 208 211 213 213 212 213 214 214 214 213 212 215 219 221 221 223 225 227 229 232 235 238 241 244
180 189 204 206 211 199 197 206 209 207 200 195 192 192 196 204 212 217 218 217 216 217 217 219 221 222 221 219 220 221 223 225 224 225 223 226 229 233 234 238 241 245 248
108 101 123 154 164 190 169 173 205 215 212 215 206 219 225 231 240 248 253 252 250 245 243 242 243 245 243 239 236 235 236 236 230 229 231 233 237 239 240 242 247 249 250
66 83 73 81 88 85 81 94 97 87 86 88 82 71 56 31 14 8 348 308 279 269 262 257 256 256 258 259 257 254 252 254 255 256 247 246 247 247 247 248 250 252 254
Height
675 679 685 690 694 698 704 709 712 716 719 722 726 730 733 735 737 738 738 739 740 741 742 746 748 749 751 753 754 758 761 764 766 774 777 779 780 781 783 785 788 792 797
677 682 686 691 696 701 707 710 713 716 720 723 727 730 732 734 734 735 736 737 738 738 741 743 745 747 749 750 753 756 760 763 767 773 777 779 781 782 784 786 790 795 799
679 684 689 694 699 704 708 710 714 717 721 724 727 729 731 732 732 733 734 735 736 738 740 742 744 745 747 749 752 754 758 762 767 772 777 780 783 785 786 791 794 799 805
682 687 692 697 701 705 708 711 715 719 721 724 727 729 730 731 731 732 733 733 734 736 737 740 742 744 745 747 750 754 757 762 767 772 778 782 785 788 790 794 801 805 804
684 689 694 698 703 706 709 713 716 719 722 725 726 728 729 730 731 731 732 732 733 734 736 737 739 741 743 747 750 753 758 763 768 774 778 782 786 789 793 799 802 808 815
685 690 695 699 704 707 710 714 717 720 723 725 726 728 729 730 730 730 730 732 733 735 735 736 737 739 741 745 748 751 756 760 768 773 778 782 787 789 795 799 804 812 821
686 691 696 700 703 707 711 714 717 719 722 725 727 728 729 730 729 729 730 731 733 734 735 736 737 738 741 744 750 754 758 761 765 768 776 782 786 790 794 801 807 812 818
688 692 696 699 703 707 711 715 717 719 722 726 728 728 730 730 729 729 731 732 734 735 735 736 738 740 742 745 750 756 761 766 769 775 779 782 786 792 798 803 807 812 822
689 693 696 699 703 707 711 714 715 719 723 726 727 728 730 730 730 731 733 734 735 736 737 737 739 741 744 748 752 756 762 767 773 777 781 785 788 792 795 803 812 816 824
689 693 696 699 702 706 711 713 715 719 723 726 728 729 730 731 732 733 734 735 736 737 737 738 740 741 746 749 753 757 762 767 772 778 784 789 793 798 803 807 809 816 822
689 693 696 699 702 706 711 714 716 721 724 726 728 730 731 732 734 735 736 737 737 738 739 740 741 744 747 751 755 759 763 767 774 780 785 791 797 802 807 811 814 817 822
689 693 696 700 703 707 711 714 717 721 724 726 729 731 731 733 735 736 737 738 739 740 740 741 744 747 750 753 756 761 766 771 776 782 787 793 799 804 809 814 818 822 825
689 693 696 700 703 707 711 715 717 721 723 726 729 731 733 734 735 737 738 739 740 741 742 744 747 750 753 755 759 762 768 773 778 783 789 795 799 805 811 816 819 823 825
688 692 696 699 703 708 712 714 717 720 722 725 728 730 733 735 736 737 738 739 741 743 745 749 751 754 757 759 764 767 771 775 779 784 790 795 801 807 812 816 820 822 826
686 691 695 699 703 708 712 715 717 719 721 723 726 729 732 734 736 737 738 739 742 744 747 752 755 758 761 765 768 771 775 779 782 786 791 797 802 807 812 816 819 822 824
684 689 693 697 703 708 711 714 716 718 721 722 725 728 731 733 736 738 739 741 743 746 750 754 757 761 765 768 771 774 777 781 784 788 793 798 802 806 810 814 817 819 821
681 686 691 696 701 706 710 712 715 719 721 722 724 727 730 731 735 738 740 743 746 749 751 755 759 763 767 770 773 775 779 782 786 789 792 796 800 804 808 811 813 816 817
679 683 689 694 699 703 707 710 712 715 719 723 725 727 730 732 735 738 741 745 748 750 753 756 760 763 767 770 773 776 779 783 786 789 792 795 798 801 805 807 809 811 813
677 683 688 693 697 701 705 708 711 713 716 720 724 727 730 732 736 740 742 746 748 751 754 757 760 763 766 770 773 776 778 781 784 787 789 792 795 798 801 803 805 807 809
676 681 686 690 695 700 704 707 709 712 715 719 723 726 728 732 735 738 742 745 747 749 752 755 758 761 764 768 771 774 776 779 782 785 787 789 792 795 796 798 800 801 803
676 681 685 689 693 696 701 704 707 710 713 716 719 722 725 730 734 737 740 743 745 747 749 752 755 758 761 765 768 771 774 776 778 781 783 785 788 789 791 793 794 796 796
675 679 684 687 690 694 698 702 705 708 711 714 718 720 724 728 731 735 737 739 742 744 747 749 752 754 756 759 762 765 768 771 773 775 778 780 782 784 785 786 787 788 789
674 679 683 687 689 692 697 700 702 705 708 712 716 719 722 725 728 730 733 735 738 741 743 746 748 751 753 755 757 760 761 763 765 767 770 772 774 776 777 778 779 779 779
676 679 683 686 690 691 693 697 700 703 706 709 713 716 719 722 724 727 729 732 735 737 739 741 743 745 747 749 751 753 754 756 759 761 763 765 766 767 769 769 769 769 770
678 681 685 688 690 693 694 697 701 703 706 709 713 716 719 722 724 726 729 731 733 735 737 739 740 741 743 745 746 747 748 749 751 754 756 758 758 759 759 760 760 760 760
679 684 690 693 692 694 698 700 703 706 708 711 713 715 718 720 722 724 726 728 729 731 732 734 735 737 739 740 741 742 743 744 746 747 750 751 751 750 750 750 750 749 749